Home > Weather > Tsingtao > Past weeks

Flag for China Past Weather in Tsingtao, Shandong, China — Yesterday and Last 2 Weeks

Now
82 °F

Haze.


Feels Like: 85 °F
Forecast: 71 / 76 °F
Wind: 15 mph from South

Location: Qingdao Airport

Current Time: Jun 27, 2016 at 3:46:52 PM

Latest Report: Jun 27, 2016 at 3:00 PM


Visibility: 2 mi

Pressure: 29.71 "Hg

Humidity: 62%

Dew Point: 68 °F

Location of TsingtaoLocation

Past Weather in Tsingtao — Graph

°F

Tsingtao Temperature Yesterday

Maximum temperature yesterday: 91 °F (at 12:00 PM)
Minimum temperature yesterday: 66 °F (at 4:00 AM)
Average temperature yesterday: 80 °F

High & Low Weather Summary for the Past Weeks

 TemperatureHumidityPressure
High91 °F (Jun 25, 2:00 PM)100% (Jun 14, 11:00 PM)29.83 "Hg (Jun 14, 11:00 PM)
Low59 °F (Jun 16, 5:00 AM)20% (Jun 25, 4:00 PM)29.42 "Hg (Jun 14, 9:00 PM)
Average76 °F70%29.65 "Hg
* Reported Jun 12 2:00 PM — Jun 27 2:00 PM, Tsingtao, Weather by CustomWeather, © 2016

Note: Actual official high and low records may vary slightly from our data, if they occured in-between our weather recording intervals... More about our weather records

Advertising

Tsingtao Weather History for the Previous 24 Hours

Scroll right to see more
 ConditionsComfort  
Time TempWeatherWind HumidityBarometerVisibility
2:00 PM
Mon, Jun 27
84 °FPassing clouds.15 mph43%29.71 "Hg4 mi
1:00 PM86 °FPassing clouds.10 mph46%29.71 "Hg4 mi
12:00 PM86 °FClear.10 mph52%29.74 "Hg4 mi
11:00 AM84 °FHaze.10 mph55%29.74 "Hg3 mi
10:00 AM81 °FHaze.10 mph66%29.74 "Hg3 mi
9:00 AM84 °FClear.10 mph55%29.74 "Hg4 mi
8:00 AM81 °FClear.6 mph62%29.74 "Hg4 mi
7:00 AM79 °FFog.3 mph70%29.74 "Hg3 mi
6:00 AM75 °FFog.3 mph78%29.74 "Hg3 mi
5:00 AM75 °FFog.6 mph78%29.74 "Hg3 mi
4:00 AM75 °FFog.1 mph78%29.74 "Hg3 mi
3:00 AM75 °FFog.1 mph78%29.74 "Hg3 mi
2:00 AM75 °FFog.6 mph78%29.77 "Hg3 mi
1:00 AM75 °FFog.6 mph78%29.77 "Hg2 mi
12:00 AM77 °FFog.8 mph74%29.77 "Hg2 mi
11:00 PM
Sun, Jun 26
77 °FFog.10 mph74%29.80 "Hg2 mi
10:00 PM77 °FFog.8 mph79%29.80 "Hg2 mi
9:00 PM77 °FFog.6 mph79%29.80 "Hg2 mi
8:00 PM77 °FFog.6 mph74%29.80 "Hg2 mi
7:00 PM81 °FClear.10 mph58%29.77 "Hg4 mi
6:00 PM82 °FClear.13 mph55%29.77 "Hg4 mi
5:00 PM86 °FSunny.13 mph43%29.77 "Hg10 mi
4:00 PM88 °FSunny.10 mph35%29.77 "Hg10 mi
3:00 PM91 °FPassing clouds.10 mph23%29.77 "HgN/A
Weather by CustomWeather, © 2016

See weather overviewHow to use our weather pages